Погода в Бад-Пирмонте

Германия     51°58′51″N   9°15′35″E
темп.,
°C
ветер,
м/с
пор.,
м/с
влажн.,
%
обл.,
%
осадки,
мм/ч
давл.,
гПа
погр.,
м
13 июня, вс
вс1323:00+11сз39929 0.1 1023406
02:00+8з229819 0.1 102529
05:00+7з119815 0.0 102617
08:00+11зсз26843 0.0 1027511
11:00+15сз46575 0.0 10271267
14:00+18сз46514 0.0 10271428
17:00+19сз34522 0.0 10271432
20:00+17сз12720 0.0 1026107
14 июня, пн
пн1423:00+11ю01900 0.0 102610
02:00+10ююв11930 0.0 102610
05:00+9ююв11955 0.0 102513
08:00+15ююв23755 0.0 1024240
11:00+20ююз34540 0.0 1022783
14:00+24юз34441 0.0 10201233
17:00+24з344517 0.0 10191384
20:00+21ссв1174100 0.0 101811
15 июня, вт
вт1523:00+16юз1185100 0.0 101911
02:00+14з1189100 0.0 101911
05:00+13ссз1198100 0.0 101913
08:00+15с1289100 0.0 1021319
11:00+18с227080 0.0 1020767
14:00+19ссв225967 0.0 1021705
17:00+21с335795 0.0 10201140
20:00+18ссв3473100 0.0 1020369
16 июня, ср
ср1623:00+13св1189100 0.0 102011
02:00+11в1188100 0.0 102014
05:00+10в1190100 0.0 101911
08:00+16вюв127375 0.0 1018199
11:00+22вюв235975 0.0 1017753
14:00+25вюв335345 0.0 10161615
17:00+22юв2582100 0.7 1015230
20:00+21вюв3887100 1.2 1014317
17 июня, чт
чт1723:00+18вюв2294100 0.0 101538
02:00+16юв229496 0.0 101418
05:00+16вюв229411 0.0 101413
08:00+20юв23805 0.0 1014157
11:00+27юв35530 0.0 1013982
14:00+29ююв35430 0.0 10122148
17:00+29юв46480 0.0 10121856
20:00+25юв38685 0.0 1012348